Location: Newark
(40.0251°N, 85.2247°W)
Time: 23:46:28
(UTC+00:00)

ISS - Visible Passes

Search period start: 06 December 2019 00:00
Search period end: 16 December 2019 00:00
Orbit: 411 x 421 km, 51.6° (Epoch: 07 December)

Date Brightness Start Highest point End Pass type
(mag) Time Alt. Az. Time Alt. Az. Time Alt. Az.
06 Dec -1.1 00:27:27 10° NW 00:28:08 15° NW 00:28:08 15° NW visible
06 Dec -2.5 23:39:10 10° NNW 23:41:54 25° NNE 23:41:54 25° NNE visible
07 Dec -2.1 22:50:53 10° NNW 22:53:22 19° NNE 22:55:47 10° ENE visible
08 Dec -1.8 00:27:06 10° NW 00:28:43 26° NW 00:28:43 26° NW visible
08 Dec -3.7 23:38:39 10° NW 23:41:58 55° NE 23:42:49 41° E visible
09 Dec -3.0 22:50:17 10° NW 22:53:24 34° NNE 22:56:31 10° E visible
10 Dec -1.9 00:27:08 10° WNW 00:30:04 28° SW 00:30:11 27° SW visible
10 Dec -2.9 23:38:23 10° WNW 23:41:40 50° SW 23:44:55 10° SE visible
11 Dec -3.8 22:49:49 10° NW 22:53:10 88° N 22:56:32 10° SE visible
12 Dec -0.7 23:38:48 10° W 23:41:05 17° SW 23:43:22 10° S visible
13 Dec -1.5 22:49:43 10° WNW 22:52:42 30° SW 22:55:41 10° SSE visible
15 Dec 0.2 22:51:15 10° WSW 22:51:58 11° SW 22:52:41 10° SW visible
